Tracking 32139 objects as of 18-Nov-2025
HD Live streaming from Space Station
objects crossing your sky now

KUIPER-00166

Track KUIPER-00166 now!
10-day predictions
KUIPER-00166 is classified as:


NORAD ID: 65779
Int'l Code: 2025-217T
Perigee: 457.7 km
Apogee: 462.0 km
Inclination: 51.9 °
Period: 93.6 minutes
Semi major axis: 6830 km
RCS: Unknown
Launch date: September 25, 2025
Source: United States (US)
Launch site: AIR FORCE EASTERN TEST RANGE (AFETR)
Your satellite tracking list
Your tracking list is empty




NASA's NSSDC Master Catalog

Two Line Element Set (TLE):
1 65779U 25217T   25321.63138747  .00021139  00000-0  56964-3 0  9992
2 65779  51.8699 185.7159 0003136 213.2198 146.8593 15.37771798  8187
Source of the keplerian elements: AFSPC